| time (UTC) | temp F | wind direction | speed MPH | gust MPH | rain 1hr in | rain 24hr in | rain mn in | humidity % | barometer mb |
| 20260831134559 | 68 | 59 | 3.0 | 9.0 | 0.00 | 0.00 | 0.00 | 56 | 1020.5 |
| 20260831133050 | 68 | 84 | 4.0 | 8.0 | 0.00 | 0.00 | 0.00 | 56 | 1020.5 |
| 20260831131550 | 67 | 85 | 4.0 | 8.0 | 0.00 | 0.00 | 0.00 | 58 | 1020.3 |
| 20260831130039 | 67 | 85 | 5.0 | 9.0 | 0.00 | 0.00 | 0.00 | 62 | 1020.1 |
| 20260831124509 | 66 | 53 | 2.0 | 7.0 | 0.00 | 0.00 | 0.00 | 67 | 1020.1 |
| 20260831123012 | 65 | 39 | 6.0 | 9.0 | 0.00 | 0.00 | 0.00 | 69 | 1019.8 |
| 20260831121556 | 65 | 20 | 3.0 | 7.0 | 0.00 | 0.00 | 0.00 | 72 | 1019.8 |
| 20260831120055 | 64 | 63 | 4.0 | 6.0 | 0.00 | 0.00 | 0.00 | 74 | 1019.8 |
| 20260831114554 | 64 | 44 | 2.0 | 5.0 | 0.00 | 0.00 | 0.00 | 77 | 1019.6 |
| 20260831113056 | 64 | 76 | 1.0 | 2.0 | 0.00 | 0.00 | 0.00 | 80 | 1019.8 |
| 20260831111555 | 63 | 19 | 2.0 | 4.0 | 0.00 | 0.00 | 0.00 | 81 | 1019.6 |
| 20260831110052 | 63 | 345 | 1.0 | 4.0 | 0.00 | 0.00 | 0.00 | 84 | 1019.8 |
| 20260831104551 | 62 | 312 | 1.0 | 3.0 | 0.00 | 0.00 | 0.00 | 86 | 1019.6 |
| 20260831103051 | 62 | 325 | 1.0 | 5.0 | 0.00 | 0.00 | 0.00 | 87 | 1019.4 |
| 20260831101529 | 62 | 355 | 1.0 | 4.0 | 0.00 | 0.00 | 0.00 | 89 | 1019.1 |
| 20260831100039 | 62 | 355 | 3.0 | 4.0 | 0.00 | 0.00 | 0.00 | 88 | 1019.0 |
| 20260831094525 | 62 | 346 | 4.0 | 7.0 | 0.00 | 0.00 | 0.00 | 88 | 1018.8 |
| 20260831093023 | 62 | 355 | 3.0 | 5.0 | 0.00 | 0.00 | 0.00 | 88 | 1018.7 |
| 20260831091548 | 63 | 350 | 3.0 | 5.0 | 0.00 | 0.00 | 0.00 | 89 | 1018.5 |
| 20260831090057 | 63 | 350 | 3.0 | 6.0 | 0.00 | 0.00 | 0.00 | 90 | 1018.4 |
| 20260831084534 | 63 | 9 | 4.0 | 5.0 | 0.00 | 0.00 | 0.00 | 90 | 1018.3 |
| 20260831083043 | 62 | 360 | 3.0 | 5.0 | 0.00 | 0.00 | 0.00 | 92 | 1018.3 |
| 20260831081532 | 62 | 321 | 3.0 | 4.0 | 0.00 | 0.00 | 0.00 | 92 | 1018.1 |
| 20260831080047 | 62 | 323 | 1.0 | 2.0 | 0.00 | 0.00 | 0.00 | 92 | 1018.0 |
| 20260831074530 | 62 | 342 | 2.0 | 3.0 | 0.00 | 0.00 | 0.00 | 92 | 1017.8 |
| 20260831073027 | 63 | 54 | 0.0 | 1.0 | 0.00 | 0.00 | 0.00 | 90 | 1017.6 |
| 20260831071540 | 64 | 273 | 0.0 | 2.0 | 0.00 | 0.00 | 0.00 | 89 | 1017.6 |
| 20260831070021 | 64 | 273 | 0.0 | 2.0 | 0.00 | 0.00 | 0.00 | 88 | 1017.5 |
| 20260831064508 | 65 | 273 | 0.0 | 2.0 | 0.00 | 0.00 | 0.00 | 87 | 1017.4 |
| 20260831063007 | 66 | 314 | 0.0 | 1.0 | 0.00 | 0.00 | 0.00 | 85 | 1017.4 |
| 20260831061501 | 67 | 314 | 0.0 | 2.0 | 0.00 | 0.00 | 0.00 | 85 | 1017.3 |
| 20260831060059 | 67 | 332 | 1.0 | 2.0 | 0.00 | 0.00 | 0.00 | 84 | 1017.1 |
| 20260831054556 | 67 | 350 | 1.0 | 4.0 | 0.00 | 0.00 | 0.00 | 83 | 1017.0 |
| 20260831053126 | 68 | 315 | 3.0 | 5.0 | 0.00 | 0.00 | 0.00 | 82 | 1016.9 |
| 20260831051551 | 68 | 355 | 4.0 | 6.0 | 0.00 | 0.00 | 0.00 | 81 | 1016.9 |
| 20260831050049 | 69 | 36 | 3.0 | 7.0 | 0.00 | 0.00 | 0.00 | 79 | 1016.8 |
| 20260831044558 | 70 | 336 | 5.0 | 10.0 | 0.00 | 0.00 | 0.00 | 78 | 1016.7 |
| 20260831043025 | 70 | 360 | 5.0 | 10.0 | 0.00 | 0.00 | 0.00 | 78 | 1016.5 |
| 20260831041518 | 71 | 343 | 7.0 | 12.0 | 0.00 | 0.00 | 0.00 | 77 | 1016.3 |
| 20260831040014 | 71 | 329 | 4.0 | 10.0 | 0.00 | 0.00 | 0.00 | 77 | 1016.1 |
| 20260831034508 | 71 | 360 | 3.0 | 7.0 | 0.00 | 0.00 | 0.00 | 76 | 1016.2 |
| 20260831033013 | 72 | 309 | 3.0 | 11.0 | 0.00 | 0.00 | 0.00 | 75 | 1016.3 |
| 20260831031503 | 72 | 345 | 5.0 | 8.0 | 0.00 | 0.00 | 0.00 | 72 | 1016.4 |
| 20260831030004 | 73 | 333 | 7.0 | 15.0 | 0.00 | 0.00 | 0.00 | 72 | 1016.4 |
| 20260831024559 | 74 | 313 | 7.0 | 12.0 | 0.00 | 0.00 | 0.00 | 73 | 1016.4 |
| 20260831023056 | 74 | 261 | 2.0 | 9.0 | 0.00 | 0.00 | 0.00 | 72 | 1016.2 |
| 20260831021543 | 74 | 296 | 3.0 | 12.0 | 0.00 | 0.00 | 0.00 | 71 | 1016.0 |
| 20260831020042 | 74 | 247 | 3.0 | 7.0 | 0.00 | 0.00 | 0.00 | 71 | 1016.0 |
| 20260831014541 | 74 | 240 | 4.0 | 6.0 | 0.00 | 0.00 | 0.00 | 70 | 1016.0 |
| 20260831013038 | 74 | 239 | 3.0 | 6.0 | 0.00 | 0.00 | 0.00 | 70 | 1015.7 |
| 20260831011538 | 74 | 257 | 3.0 | 7.0 | 0.00 | 0.00 | 0.00 | 68 | 1015.5 |
| 20260831010054 | 75 | 248 | 4.0 | 7.0 | 0.00 | 0.00 | 0.00 | 65 | 1015.4 |
| 20260831004532 | 75 | 257 | 3.0 | 8.0 | 0.00 | 0.00 | 0.00 | 63 | 1015.3 |
| 20260831003034 | 76 | 259 | 2.0 | 6.0 | 0.00 | 0.00 | 0.00 | 61 | 1015.2 |
| 20260831001518 | 76 | 250 | 4.0 | 9.0 | 0.00 | 0.00 | 0.00 | 60 | 1015.0 |
| 20260831000021 | 76 | 211 | 2.0 | 5.0 | 0.00 | 0.00 | 0.00 | 59 | 1014.8 |
| 20260830234515 | 77 | 260 | 2.0 | 7.0 | 0.00 | 0.00 | 0.00 | 58 | 1014.6 |
| 20260830233014 | 77 | 360 | 3.0 | 5.0 | 0.00 | 0.00 | 0.00 | 58 | 1014.7 |
| 20260830231516 | 77 | 246 | 3.0 | 5.0 | 0.00 | 0.00 | 0.00 | 57 | 1014.6 |
| 20260830230011 | 77 | 214 | 3.0 | 7.0 | 0.00 | 0.00 | 0.00 | 57 | 1014.7 |
| 20260830224508 | 78 | 238 | 3.0 | 7.0 | 0.00 | 0.00 | 0.00 | 57 | 1015.0 |
| 20260830223007 | 78 | 234 | 3.0 | 6.0 | 0.00 | 0.00 | 0.00 | 56 | 1015.1 |
| 20260830221608 | 78 | 283 | 4.0 | 8.0 | 0.00 | 0.00 | 0.00 | 56 | 1015.1 |
| 20260830220047 | 79 | 232 | 2.0 | 10.0 | 0.00 | 0.00 | 0.00 | 55 | 1015.0 |
| 20260830214547 | 79 | 215 | 3.0 | 7.0 | 0.00 | 0.00 | 0.00 | 55 | 1015.1 |
| 20260830213046 | 79 | 241 | 3.0 | 10.0 | 0.00 | 0.00 | 0.00 | 54 | 1015.3 |
| 20260830211528 | 79 | 213 | 4.0 | 10.0 | 0.00 | 0.00 | 0.00 | 53 | 1015.3 |
| 20260830210010 | 80 | 251 | 5.0 | 10.0 | 0.00 | 0.00 | 0.00 | 51 | 1015.4 |
| 20260830204512 | 80 | 193 | 6.0 | 15.0 | 0.00 | 0.00 | 0.00 | 50 | 1015.4 |
| 20260830203012 | 80 | 221 | 4.0 | 7.0 | 0.00 | 0.00 | 0.00 | 51 | 1015.5 |
| 20260830201504 | 80 | 298 | 5.0 | 9.0 | 0.00 | 0.00 | 0.00 | 50 | 1015.6 |
| 20260830200003 | 81 | 232 | 5.0 | 9.0 | 0.00 | 0.00 | 0.00 | 50 | 1015.6 |
| 20260830194502 | 81 | 279 | 2.0 | 9.0 | 0.00 | 0.00 | 0.00 | 50 | 1015.8 |
| 20260830193058 | 81 | 268 | 3.0 | 7.0 | 0.00 | 0.00 | 0.00 | 49 | 1016.2 |
| 20260830191557 | 81 | 288 | 2.0 | 10.0 | 0.00 | 0.00 | 0.00 | 48 | 1016.3 |
| 20260830190045 | 80 | 290 | 5.0 | 11.0 | 0.00 | 0.00 | 0.00 | 48 | 1016.4 |
| 20260830184548 | 81 | 360 | 5.0 | 13.0 | 0.00 | 0.00 | 0.00 | 48 | 1016.6 |
| 20260830183041 | 81 | 290 | 5.0 | 13.0 | 0.00 | 0.00 | 0.00 | 48 | 1016.8 |
| 20260830181540 | 81 | 230 | 4.0 | 14.0 | 0.00 | 0.00 | 0.00 | 49 | 1017.0 |
| 20260830180040 | 81 | 239 | 4.0 | 12.0 | 0.00 | 0.00 | 0.00 | 50 | 1017.1 |
| 20260830174537 | 80 | 328 | 7.0 | 14.0 | 0.00 | 0.00 | 0.00 | 50 | 1017.2 |
| 20260830173040 | 80 | 284 | 5.0 | 14.0 | 0.00 | 0.00 | 0.00 | 50 | 1017.3 |
| 20260830171535 | 80 | 290 | 7.0 | 19.0 | 0.00 | 0.00 | 0.00 | 50 | 1017.4 |
| 20260830170022 | 81 | 321 | 8.0 | 18.0 | 0.00 | 0.00 | 0.00 | 50 | 1017.5 |
| 20260830164522 | 81 | 284 | 5.0 | 11.0 | 0.00 | 0.00 | 0.00 | 50 | 1017.4 |
| 20260830163025 | 81 | 292 | 6.0 | 15.0 | 0.00 | 0.00 | 0.00 | 49 | 1017.4 |
| 20260830161519 | 81 | 277 | 4.0 | 9.0 | 0.00 | 0.00 | 0.00 | 53 | 1017.4 |
| 20260830160014 | 79 | 259 | 5.0 | 10.0 | 0.00 | 0.00 | 0.00 | 56 | 1017.6 |
| 20260830154512 | 78 | 360 | 6.0 | 13.0 | 0.00 | 0.00 | 0.00 | 55 | 1017.8 |
| 20260830153010 | 78 | 240 | 6.0 | 11.0 | 0.00 | 0.00 | 0.00 | 55 | 1017.9 |
| 20260830151509 | 78 | 316 | 4.0 | 11.0 | 0.00 | 0.00 | 0.00 | 56 | 1018.2 |
| 20260830150113 | 78 | 294 | 2.0 | 9.0 | 0.00 | 0.00 | 0.00 | 56 | 1018.1 |
| 20260830144546 | 77 | 244 | 5.0 | 11.0 | 0.00 | 0.00 | 0.00 | 56 | 1018.2 |
| 20260830143038 | 76 | 262 | 6.0 | 14.0 | 0.00 | 0.00 | 0.00 | 57 | 1018.4 |
| 20260830141529 | 75 | 287 | 4.0 | 10.0 | 0.00 | 0.00 | 0.00 | 59 | 1018.6 |
| 20260830140028 | 75 | 360 | 4.0 | 8.0 | 0.00 | 0.00 | 0.00 | 59 | 1018.7 |